Bryce, UT

3:17 PM MST on December 07, 2016 (GMT -0700)
Bryce Canyon

Weather History for KBCE - April, 2014

Change the Weather History Date:

Friday, April 18, 2014

  Actual Average Record
Temperature  
Mean Temperature 44 °F -  
Max Temperature 63 °F 54 °F 72 °F (1962)
Min Temperature 28 °F 25 °F 11 °F (1983)
Degree Days  
Heating Degree Days 20    
Moisture  
Dew Point 23 °F    
Average Humidity 48    
Maximum Humidity 78    
Minimum Humidity 20    
Precipitation  
Precipitation 0.00 in - - ()
Sea Level Pressure  
Sea Level Pressure 29.88 in    
Wind  
Wind Speed 7 mph (SSW)    
Max Wind Speed 20 mph    
Max Gust Speed 30 mph    
Visibility 10 miles    
Events      
Averages and records for this station are not official NWS values.
T = Trace of Precipitation, MM = Missing Value Source: NWS Daily Summary

Daily Weather History Graph

Daily Weather History Graph

Search for Another Location

Airport or City:

Trip Planner

Search our weather history database for the weather conditions in past years. The results will help you decide how hot, cold, wet, or windy it might be!

Date:

Astronomy

Apr. 18, 2014 Rise Set
Actual Time 6:49 AM MDT 8:07 PM MDT
Civil Twilight 6:22 AM MDT 8:34 PM MDT
Nautical Twilight 5:49 AM MDT 9:07 PM MDT
Astronomical Twilight 5:15 AM MDT 9:41 PM MDT
Moon 11:53 PM MDT (4/18) 9:17 AM MDT (4/18)
Length of Visible Light 14h 12m
Length of Day
13h 17m
Waning Gibbous, 86% of the Moon is Illuminated
Apr 18
Waning Gibbous
Apr 22
Last Quarter
Apr 29
New
May 6
First Quarter
May 14
Full

Hourly Weather History & Observations

Time (MDT) Temp. Windchill Dew Point Humidity Pressure Visibility Wind Dir Wind Speed Gust Speed Precip Events Conditions
12:53 AM 33.1 °F 27.7 °F 24.1 °F 70% 29.92 in 10.0 mi WSW 5.8 mph - N/A   Clear
1:53 AM 35.1 °F 30.1 °F 23.0 °F 61% 29.90 in 10.0 mi West 5.8 mph - N/A   Clear
2:53 AM 30.9 °F - 24.1 °F 76% 29.89 in 10.0 mi Calm Calm - N/A   Clear
3:53 AM 30.0 °F - 23.0 °F 75% 29.88 in 10.0 mi Calm Calm - N/A   Clear
4:53 AM 28.9 °F 23.9 °F 23.0 °F 78% 29.87 in 10.0 mi West 4.6 mph - N/A   Clear
5:53 AM 30.0 °F - 21.9 °F 72% 29.87 in 10.0 mi Calm Calm - N/A   Clear
6:53 AM 30.0 °F 23.2 °F 21.9 °F 72% 29.87 in 10.0 mi WSW 6.9 mph - N/A   Clear
7:53 AM 36.0 °F 31.1 °F 24.1 °F 62% 29.89 in 10.0 mi West 5.8 mph - N/A   Clear
8:53 AM 54.0 °F - 21.0 °F 28% 29.86 in 10.0 mi SSE 10.4 mph - N/A   Clear
9:53 AM 57.0 °F - 21.0 °F 25% 29.87 in 10.0 mi SSE 11.5 mph - N/A   Clear
10:53 AM 59.0 °F - 21.9 °F 24% 29.88 in 10.0 mi SSE 12.7 mph - N/A   Clear
11:53 AM 57.9 °F - 19.9 °F 23% 29.91 in 10.0 mi South 12.7 mph - N/A   Clear
12:53 PM 61.0 °F - 19.0 °F 20% 29.88 in 10.0 mi SSW 13.8 mph 29.9 mph N/A   Clear
1:53 PM 61.0 °F - 19.9 °F 21% 29.86 in 10.0 mi South 19.6 mph - N/A   Clear
3:53 PM 57.9 °F - 19.0 °F 22% 29.88 in 10.0 mi South 16.1 mph 24.2 mph N/A   Mostly Cloudy
4:53 PM 55.9 °F - 23.0 °F 28% 29.89 in 10.0 mi SSW 17.3 mph 27.6 mph N/A   Partly Cloudy
6:53 PM 52.0 °F - 25.0 °F 35% 29.91 in 10.0 mi SSE 11.5 mph - N/A   Mostly Cloudy
7:53 PM 50.0 °F - 27.0 °F 41% 29.90 in 10.0 mi SE 8.1 mph - N/A   Overcast
9:53 PM 44.1 °F - 25.0 °F 47% 29.85 in 10.0 mi Calm Calm - N/A   Clear
10:53 PM 35.1 °F - 24.1 °F 64% 29.88 in 10.0 mi Calm Calm - N/A   Clear
11:53 PM 35.1 °F 32.2 °F 24.1 °F 64% 29.88 in 10.0 mi West 3.5 mph - N/A   Partly Cloudy